Location: Asheville, NC
(35.6000°N, 82.5500°W)
Time: 04:40:14
(UTC-04:00)

Vanguard 2 Rocket - All Passes

Search period start: 25 May 2018 00:00
Search period end: 04 June 2018 00:00
Orbit: 553 x 3327 km, 32.9° (Epoch: 24 May)

Date Brightness Start Highest point End Pass type
(mag) Time Alt. Az. Time Alt. Az. Time Alt. Az.
25 May - 01:28:17 10° W 01:33:06 36° SSW 01:40:40 10° SE night (unlit)
25 May - 03:42:47 10° WSW 03:47:15 16° SSW 03:53:01 10° S visible
25 May - 17:55:19 10° SSE 17:55:42 10° SSE 17:56:05 10° SSE daylight
25 May - 20:04:31 10° SW 20:08:33 32° SSE 20:12:05 10° E daylight
25 May - 22:17:08 10° W 22:20:59 62° S 22:25:36 10° E visible
26 May - 00:29:24 10° W 00:33:42 42° SSW 00:40:10 10° SE visible
26 May - 02:42:45 10° WSW 02:47:17 19° SSW 02:53:33 10° SSE night (unlit)
26 May - 19:05:12 10° SW 19:09:27 25° SSE 19:12:50 10° ESE daylight
26 May - 21:17:58 10° WSW 21:21:57 56° S 21:25:59 10° E visible
26 May - 23:30:34 10° W 23:34:30 49° S 23:39:55 10° ESE visible
27 May - 01:43:20 10° WSW 01:47:36 23° SSW 01:53:41 10° SSE night (unlit)
27 May - 18:05:49 10° SSW 18:10:12 19° SSE 18:13:33 10° ESE daylight
27 May - 20:18:33 10° WSW 20:22:57 47° S 20:26:43 10° E daylight
27 May - 22:31:35 10° W 22:35:24 56° S 22:39:59 10° ESE visible
28 May - 00:44:12 10° WSW 00:48:09 28° SSW 00:53:45 10° SE night (unlit)
28 May - 03:01:34 10° SSW 03:01:54 10° SSW 03:02:13 10° SSW night (unlit)
28 May - 17:06:33 10° SSW 17:10:43 16° SSE 17:13:59 10° ESE daylight
28 May - 19:18:49 10° SW 19:23:52 38° SSE 19:27:40 10° E daylight
28 May - 21:32:23 10° W 21:36:24 60° S 21:40:26 10° E visible
28 May - 23:45:11 10° W 23:48:55 34° SSW 23:53:52 10° SE visible
29 May - 01:59:29 10° SW 02:02:09 13° SSW 02:05:20 10° S night (unlit)
29 May - 16:07:50 10° S 16:11:00 12° SSE 16:13:41 10° SE daylight
29 May - 18:18:52 10° SW 18:24:39 31° SSE 18:28:42 10° E daylight
29 May - 20:32:50 10° WSW 20:37:22 59° S 20:41:13 10° E daylight
29 May - 22:46:07 10° W 22:49:50 43° SSW 22:54:13 10° ESE visible
30 May - 00:59:34 10° WSW 01:02:38 17° SSW 01:06:29 10° SSE night (unlit)
30 May - 17:18:46 10° SW 17:25:15 26° SSE 17:29:39 10° ESE daylight
30 May - 19:32:54 10° WSW 19:38:18 53° S 19:42:15 10° E daylight
30 May - 21:46:51 10° W 21:50:49 53° S 21:54:48 10° ESE visible
31 May - 00:00:08 10° WSW 00:03:19 21° SSW 00:07:19 10° SSE visible
31 May - 16:18:41 10° SSW 16:25:35 22° SSE 16:30:23 10° ESE daylight
31 May - 18:32:36 10° WSW 18:39:06 46° SSE 18:43:24 10° E daylight
31 May - 20:47:13 10° W 20:51:49 61° S 20:55:39 10° ESE daylight
31 May - 23:00:48 10° W 23:04:12 28° SSW 23:08:07 10° SE visible
01 Jun - 15:18:49 10° SSW 15:25:39 18° SSE 15:30:40 10° ESE daylight
01 Jun - 17:32:00 10° SW 17:39:44 39° SSE 17:44:34 10° E daylight
01 Jun - 19:47:11 10° WSW 19:52:44 63° S 19:56:44 10° E daylight
01 Jun - 22:01:23 10° W 22:05:12 39° SSW 22:09:00 10° SE visible
02 Jun - 00:16:12 10° SW 00:17:43 12° SSW 00:19:23 10° S night (unlit)
02 Jun - 14:19:40 10° S 14:25:26 14° SSE 14:30:04 10° SE daylight
02 Jun - 16:31:15 10° SW 16:40:07 34° SSE 16:45:38 10° E daylight
02 Jun - 18:46:41 10° WSW 18:53:32 60° S 18:57:56 10° E daylight
02 Jun - 21:01:42 10° W 21:06:13 52° S 21:10:01 10° ESE visible
02 Jun - 23:15:55 10° WSW 23:18:32 17° SSW 23:21:22 10° SSE visible
03 Jun - 13:23:11 10° SSE 13:24:56 10° SSE 13:26:35 10° SE daylight
03 Jun - 15:30:31 10° SSW 15:40:13 29° SSE 15:46:26 10° ESE daylight
03 Jun - 17:45:47 10° WSW 17:54:11 54° S 17:59:12 10° E daylight
03 Jun - 20:01:35 10° W 20:07:10 63° S 20:11:10 10° ESE daylight
03 Jun - 22:16:06 10° W 22:19:30 25° SSW 22:22:50 10° SE visible
